Location: Caracas
(10.5033°N, 66.8422°W)
Time: 09:18:39
(UTC-04:00)

Tiangong 2 - Visible Passes

Search period start: 20 June 2018 00:00
Search period end: 30 June 2018 00:00
Orbit: 291 x 297 km, 42.8° (Epoch: 20 June)

Date Brightness Start Highest point End Pass type
(mag) Time Alt. Az. Time Alt. Az. Time Alt. Az.
20 Jun 3.1 05:42:40 10° WNW 05:43:28 11° NW 05:44:16 10° NNW visible
21 Jun 4.0 04:17:02 14° NE 04:17:02 14° NE 04:17:29 10° NE visible
22 Jun 3.9 04:23:01 11° NNE 04:23:01 11° NNE 04:23:10 10° NNE visible
